FALCON 9 DEB (44975 NORAD) Tracking and Keplerian Element Data

This shows tracking and keplerian element data for the satellite.

Feedback or suggestion? Click here.




ElementValue
Catalog44975
NameFALCON 9 DEB
Epoch Orbit657
Epoch Day48.10291807
Epoch Year2020
RAAN185.5774
Inclination52.9924
Eccentricity0.0006623
Argument of Perigee58.3159
Mean Anonmoly301.8518
Mean Motion16.07454885
Decay Rate0.00087348
L11 44975U 20001BP 20048.10291807 .00087348 15075-4 10993-3 0 9991
L22 44975 52.9924 185.5774 0006623 58.3159 301.8518 16.07454885 6579

Live tracking and technical data element details for FALCON 9 DEB (NORAD 44975). FALCON 9 DEB can be tracked NOW for your location showing map with azimuth and elevation plus other details from your city location.

Track the satellite on the map from your city or location and see movement details for azimuth, elevation, latitude, longitude, range, height, and movement on the map or in text.







IsCatalogInMostPopularTable: catalog: 44975, numindb: 11
Update: records affected: 1



GetName: 44975 FALCON 9 DEB

Hit Count: updated at: Tue, 18 Feb 2020 01:24:08 GMT